CDT,Max TemperatureF,Mean TemperatureF,Min TemperatureF,Max Dew PointF,MeanDew PointF,Min DewpointF,Max Humidity, Mean Humidity, Min Humidity, Max Sea Level PressureIn, Mean Sea Level PressureIn, Min Sea Level PressureIn, Max VisibilityMiles, Mean VisibilityMiles, Min VisibilityMiles, Max Wind SpeedMPH, Mean Wind SpeedMPH, Max Gust SpeedMPH,PrecipitationIn, CloudCover, Events, WindDirDegrees
2013-3-1,35,34,32,27,24,21,75,68,60,30.16,30.13,30.10,10,8,2,14,7,17,0.00,8,,310
2013-3-2,33,30,28,25,18,12,70,59,47,30.26,30.21,30.15,10,10,7,17,10,22,0.00,8,,333
2013-3-3,42,32,21,19,16,10,68,50,39,30.25,30.18,30.09,10,10,7,10,2,,0.00,2,,267
2013-3-4,62,48,35,41,27,19,62,42,30,30.10,29.90,29.75,10,10,10,18,8,28,0.04,4,,145
2013-3-5,55,45,35,45,30,16,76,59,39,30.18,29.96,29.76,10,10,3,22,8,33,0.21,6,,303
2013-3-6,39,34,28,21,19,16,69,52,48,30.38,30.31,30.18,10,10,8,18,11,25,0.00,5,,331
2013-3-7,48,38,28,28,23,18,69,56,43,30.43,30.36,30.32,10,10,9,8,4,,0.00,0,,58
2013-3-8,57,44,30,30,25,19,64,48,31,30.43,30.33,30.23,10,10,10,13,6,,0.00,0,,77
2013-3-9,69,58,46,36,30,25,50,37,27,30.22,30.08,29.94,10,10,10,14,8,22,0.00,2,,136
2013-3-10,64,58,48,48,42,34,76,58,39,29.95,29.85,29.75,10,10,5,23,11,33,0.49,4,,162
2013-3-11,51,42,33,45,28,21,76,61,49,30.05,29.92,29.82,10,10,3,17,11,25,0.02,7,,273
2013-3-12,51,38,26,28,23,18,75,53,35,30.21,30.14,30.04,10,10,5,12,3,,0.00,1,,273
2013-3-13,46,40,33,27,19,16,53,43,32,30.43,30.37,30.22,10,10,10,18,8,23,0.00,0,,315
2013-3-14,55,42,28,28,22,16,64,46,33,30.44,30.33,30.16,10,10,10,12,4,16,0.00,2,,143
2013-3-15,78,60,42,48,40,28,62,45,32,30.15,29.99,29.86,10,10,10,17,7,25,0.00,0,,216
2013-3-16,75,63,51,52,44,37,58,48,40,29.94,29.87,29.82,10,10,7,25,16,37,0.00,2,,238
2013-3-17,53,48,42,45,37,32,72,66,58,29.99,29.88,29.68,10,8,2,16,11,23,0.01,7,Thunderstorm,60
2013-3-18,57,48,39,45,38,30,76,68,58,30.05,29.81,29.66,10,8,2,14,6,18,0.64,6,Thunderstorm,294
2013-3-19,53,43,33,32,23,18,75,47,26,30.23,30.16,30.06,10,9,0,12,4,17,0.00,2,,14
2013-3-20,51,42,33,28,22,10,65,46,25,30.26,30.18,30.08,10,10,10,20,6,30,0.00,2,,317
2013-3-21,44,34,24,25,15,10,70,45,29,30.14,30.08,29.98,10,10,2,10,4,,0.00,3,,34
2013-3-22,46,40,33,30,26,21,75,56,46,30.03,29.98,29.93,10,9,2,12,5,,0.08,8,,79
2013-3-23,53,48,42,39,33,27,71,58,49,29.97,29.88,29.69,10,10,6,16,8,24,0.08,8,,65
2013-3-24,48,42,35,39,33,19,76,66,48,29.92,29.66,29.51,10,7,2,30,11,41,0.14,8,,305
2013-3-25,37,35,33,19,19,18,56,52,45,30.23,30.06,29.91,10,10,10,20,15,28,0.00,8,,282
2013-3-26,44,37,30,23,20,18,69,54,39,30.37,30.32,30.24,10,10,4,13,7,17,0.00,4,,299
2013-3-27,53,38,24,28,23,14,69,52,35,30.43,30.37,30.32,10,10,9,12,2,,0.00,1,,334
2013-3-28,62,50,39,34,29,25,65,44,31,30.38,30.32,30.25,10,10,8,9,3,,0.00,6,,120
2013-3-29,51,48,44,41,35,28,76,62,41,30.29,30.23,30.20,10,7,0,12,5,,0.10,6,,96
2013-3-30,53,46,39,48,40,34,82,77,71,30.22,30.09,29.94,10,3,0,10,5,,0.00,8,,103
2013-3-31,64,55,46,48,45,39,82,71,48,29.99,29.93,29.89,10,6,0,16,5,20,0.00,5,,308